User: anonymous   Login
Location: Unspecified
(0.0000°N, 0.0000°E)
Time: 12:42:16
(UTC+00:00)
Language:

INTEGRAL - Orbit

View from above orbital plane
View from above orbital plane
View from above satellite
View from above satellite

Ground track
Ground track

The orbit data is extracted from the following two-line orbital elements,

1 27540U 02048A   18282.55299481  .00000589  00000-0  00000+0 0  9997
2 27540  48.8022 161.3352 8606838 270.9969   0.7118  0.37528858 16084
Epoch (UTC): 09 October 2018 13:16:18
Eccentricity: 0.8606838
inclination: 48.8022°
perigee height: 4932 km
apogee height: 144685 km
right ascension of ascending node: 161.3352°
argument of perigee: 270.9969°
revolutions per day: 0.37528858
mean anomaly at epoch: 0.7118°
orbit number at epoch: 1608

The dashed part of the orbit path shows where the satellite is in the earth's shadow,  

DLR